SQP572 LUKK-EYVI

Flight info

Callsign SQP572
Flight time 1h 55m
Altitude 36000
Route UNIRA DCT KARIL DCT KENIN/N0447F350 DCT GAWOR L71 BOKSU DCT IRKAL
Aircraft B738/M-SDGIJ1LRWY/SB1

Departure

Time 2026-05-04 16:56
Airport Chişinău International Airport (LUKK)

Arrival

Time 2026-05-04 18:51
Airport Vilnius International Airport (EYVI)
Time Latitude Longitude Altitude Speed Heading
2026-05-04 16:22 46.93361 28.93669 309 ft 0 kts
2026-05-04 16:46 46.93362 28.93669 309 ft 0 kts
2026-05-04 16:48 46.93385 28.93672 308 ft 4 kts 354°
2026-05-04 16:48 46.93404 28.93645 308 ft 3 kts 287°
2026-05-04 16:49 46.93416 28.93527 311 ft 8 kts 265°
2026-05-04 16:49 46.93340 28.93473 314 ft 11 kts 186°
2026-05-04 16:50 46.93187 28.93446 317 ft 10 kts 189°
2026-05-04 16:50 46.93167 28.93274 321 ft 12 kts 277°
2026-05-04 16:51 46.93191 28.92990 326 ft 12 kts 277°
2026-05-04 16:51 46.93200 28.92878 329 ft 10 kts 277°
2026-05-04 16:51 46.93222 28.92616 334 ft 15 kts 277°
2026-05-04 16:52 46.93250 28.92281 345 ft 15 kts 277°
2026-05-04 16:52 46.93262 28.92143 353 ft 10 kts 277°
2026-05-04 16:53 46.93227 28.92031 360 ft 8 kts 194°
2026-05-04 16:53 46.92948 28.91990 362 ft 13 kts 179°
2026-05-04 16:54 46.92865 28.91995 362 ft 10 kts 177°
2026-05-04 16:55 46.92777 28.92954 331 ft 106 kts 88°
2026-05-04 16:55 46.92859 28.96065 764 ft 171 kts 86°
2026-05-04 16:56 46.92982 28.99396 2008 ft 168 kts 85°
2026-05-04 16:56 46.94069 29.04259 3079 ft 197 kts 24°
2026-05-04 16:57 46.95454 29.04520 3426 ft 214 kts 354°
2026-05-04 16:57 46.97957 29.01741 4145 ft 260 kts 294°
2026-05-04 16:58 46.99025 28.93567 5800 ft 282 kts 286°
2026-05-04 16:58 46.99466 28.90760 6032 ft 284 kts 288°
2026-05-04 16:59 47.00423 28.85166 6054 ft 288 kts 288°
2026-05-04 17:00 47.02356 28.73724 8916 ft 293 kts 289°
2026-05-04 17:00 47.03843 28.64862 10714 ft 315 kts 289°
2026-05-04 17:01 47.04932 28.58395 11440 ft 345 kts 289°
2026-05-04 17:01 47.06093 28.51405 12603 ft 359 kts 289°
2026-05-04 17:02 47.07270 28.44254 13958 ft 367 kts 288°
2026-05-04 17:02 47.08466 28.36963 15377 ft 374 kts 288°
2026-05-04 17:03 47.09074 28.33243 16049 ft 379 kts 287°
2026-05-04 17:03 47.09692 28.29464 16765 ft 381 kts 287°
2026-05-04 17:03 47.10927 28.21886 18093 ft 388 kts 287°
2026-05-04 17:04 47.12181 28.14150 19384 ft 395 kts 287°
2026-05-04 17:04 47.13453 28.06259 20607 ft 401 kts 286°
2026-05-04 17:05 47.14739 27.98251 21808 ft 407 kts 286°
2026-05-04 17:05 47.16037 27.90136 22959 ft 413 kts 286°
2026-05-04 17:06 47.17328 27.81925 24131 ft 417 kts 285°
2026-05-04 17:06 47.17930 27.77770 24711 ft 419 kts 284°
2026-05-04 17:07 47.19092 27.69341 25811 ft 424 kts 284°
2026-05-04 17:07 47.19470 27.66564 26171 ft 425 kts 284°
2026-05-04 17:07 47.20242 27.60893 26829 ft 428 kts 284°
2026-05-04 17:07 47.20832 27.56562 27323 ft 430 kts 284°
2026-05-04 17:08 47.21419 27.52257 27775 ft 433 kts 284°
2026-05-04 17:08 47.22599 27.43610 28660 ft 437 kts 284°
2026-05-04 17:08 47.23198 27.39210 29090 ft 440 kts 284°
2026-05-04 17:09 47.23797 27.34805 29531 ft 441 kts 283°
2026-05-04 17:09 47.24394 27.30403 29918 ft 443 kts 283°
2026-05-04 17:09 47.24997 27.25942 30342 ft 445 kts 283°
2026-05-04 17:10 47.26203 27.16981 31336 ft 442 kts 283°
2026-05-04 17:10 47.27999 27.03534 32517 ft 443 kts 283°
2026-05-04 17:11 47.28590 26.99085 32905 ft 443 kts 283°
2026-05-04 17:11 47.29178 26.94650 33258 ft 443 kts 283°
2026-05-04 17:11 47.30344 26.85795 33976 ft 442 kts 283°
2026-05-04 17:12 47.30930 26.81313 34312 ft 442 kts 283°
2026-05-04 17:12 47.32093 26.72403 34937 ft 441 kts 283°
2026-05-04 17:13 47.33810 26.59144 35792 ft 439 kts 283°
2026-05-04 17:14 47.35519 26.45835 36062 ft 441 kts 283°
2026-05-04 17:14 47.36079 26.41435 36065 ft 439 kts 283°
2026-05-04 17:15 47.37756 26.28184 36072 ft 439 kts 282°
2026-05-04 17:16 47.39966 26.10537 36085 ft 438 kts 282°
2026-05-04 17:17 47.42145 25.92893 36095 ft 438 kts 282°
2026-05-04 17:18 47.44299 25.75226 36104 ft 438 kts 282°
2026-05-04 17:19 47.46429 25.57526 36113 ft 438 kts 282°
2026-05-04 17:20 47.48533 25.39793 36120 ft 438 kts 282°
2026-05-04 17:20 47.50087 25.26539 36115 ft 438 kts 282°
2026-05-04 17:21 47.52142 25.08793 36118 ft 439 kts 282°
2026-05-04 17:22 47.53156 24.99928 36118 ft 438 kts 282°
2026-05-04 17:23 47.55168 24.82156 36123 ft 438 kts 282°
2026-05-04 17:24 47.56664 24.68819 36117 ft 439 kts 282°
2026-05-04 17:25 47.58622 24.51091 36119 ft 438 kts 282°
2026-05-04 17:26 47.60555 24.33327 36123 ft 437 kts 281°
2026-05-04 17:27 47.62931 24.11145 36114 ft 437 kts 281°
2026-05-04 17:28 47.64805 23.93358 36112 ft 437 kts 281°
2026-05-04 17:29 47.67558 23.66688 36108 ft 436 kts 281°
2026-05-04 17:31 47.69797 23.44489 36091 ft 436 kts 281°
2026-05-04 17:32 47.72005 23.22193 36070 ft 435 kts 281°
2026-05-04 17:33 47.73730 23.04468 36072 ft 435 kts 280°
2026-05-04 17:34 47.75433 22.86660 36061 ft 435 kts 281°
2026-05-04 17:35 47.77508 22.64523 36058 ft 433 kts 281°
2026-05-04 17:36 47.78371 22.55672 36056 ft 432 kts 284°
2026-05-04 17:36 47.80365 22.47353 36060 ft 425 kts 304°
2026-05-04 17:37 47.84058 22.40615 36057 ft 420 kts 319°
2026-05-04 17:37 47.88658 22.35408 36057 ft 416 kts 329°
2026-05-04 17:38 47.93640 22.30999 36056 ft 416 kts 331°
2026-05-04 17:38 47.98680 22.26659 36055 ft 416 kts 331°
2026-05-04 17:39 48.06131 22.20083 36056 ft 417 kts 330°
2026-05-04 17:39 48.11106 22.15604 36057 ft 416 kts 330°
2026-05-04 17:40 48.16064 22.11104 36058 ft 415 kts 330°
2026-05-04 17:40 48.21024 22.06584 36058 ft 415 kts 330°
2026-05-04 17:41 48.25964 22.02072 36058 ft 414 kts 330°
2026-05-04 17:41 48.30939 21.97700 35765 ft 414 kts 335°
2026-05-04 17:42 48.33579 21.96075 35531 ft 410 kts 344°
2026-05-04 17:42 48.36332 21.95236 35306 ft 408 kts 354°
2026-05-04 17:42 48.39168 21.95097 35090 ft 408 kts
2026-05-04 17:42 48.41986 21.95462 35061 ft 408 kts
2026-05-04 17:43 48.47575 21.97370 35054 ft 412 kts 12°
2026-05-04 17:43 48.53261 21.98594 35059 ft 410 kts
2026-05-04 17:44 48.58978 21.99274 35058 ft 412 kts
2026-05-04 17:44 48.64659 22.00008 35059 ft 412 kts
2026-05-04 17:45 48.70381 22.00865 35059 ft 412 kts
2026-05-04 17:45 48.76080 22.01778 35060 ft 413 kts
2026-05-04 17:46 48.81785 22.02717 35065 ft 412 kts
2026-05-04 17:46 48.87500 22.03670 35064 ft 412 kts
2026-05-04 17:47 48.93201 22.04624 35063 ft 413 kts
2026-05-04 17:47 48.98920 22.05585 35067 ft 413 kts
2026-05-04 17:48 49.04630 22.06544 35064 ft 413 kts
2026-05-04 17:48 49.10331 22.07504 35070 ft 414 kts
2026-05-04 17:49 49.16074 22.08473 35075 ft 414 kts
2026-05-04 17:49 49.21788 22.09439 35081 ft 414 kts
2026-05-04 17:50 49.27497 22.10407 35087 ft 414 kts
2026-05-04 17:50 49.33200 22.11387 35079 ft 414 kts
2026-05-04 17:51 49.38933 22.12378 35072 ft 414 kts
2026-05-04 17:51 49.44673 22.13365 35058 ft 415 kts
2026-05-04 17:52 49.50425 22.14352 35045 ft 416 kts
2026-05-04 17:52 49.56170 22.15342 35038 ft 417 kts
2026-05-04 17:53 49.61925 22.16333 35038 ft 416 kts
2026-05-04 17:53 49.67660 22.17320 35027 ft 416 kts
2026-05-04 17:54 49.73431 22.18317 35021 ft 417 kts
2026-05-04 17:54 49.79185 22.19313 35015 ft 417 kts
2026-05-04 17:55 49.84943 22.20317 35012 ft 418 kts
2026-05-04 17:55 49.90761 22.21330 35004 ft 419 kts
2026-05-04 17:56 49.96534 22.22336 35006 ft 418 kts
2026-05-04 17:56 50.02330 22.23348 35001 ft 418 kts
2026-05-04 17:57 50.08110 22.24360 34999 ft 419 kts
2026-05-04 17:57 50.13931 22.25384 34998 ft 418 kts
2026-05-04 17:58 50.19715 22.26404 34999 ft 420 kts
2026-05-04 17:58 50.25564 22.27438 34989 ft 421 kts
2026-05-04 17:59 50.31382 22.28469 34982 ft 420 kts
2026-05-04 18:00 50.40080 22.30013 34976 ft 420 kts
2026-05-04 18:00 50.45882 22.31047 34972 ft 420 kts
2026-05-04 18:01 50.51711 22.32088 34967 ft 422 kts
2026-05-04 18:01 50.57554 22.33133 34972 ft 423 kts
2026-05-04 18:02 50.66298 22.34704 34974 ft 422 kts
2026-05-04 18:02 50.72147 22.35759 34978 ft 423 kts
2026-05-04 18:03 50.78008 22.36816 34979 ft 424 kts
2026-05-04 18:03 50.83865 22.37878 34986 ft 424 kts
2026-05-04 18:04 50.89737 22.38944 34982 ft 425 kts
2026-05-04 18:05 50.98553 22.40549 34978 ft 425 kts
2026-05-04 18:05 51.04427 22.41624 34978 ft 425 kts
2026-05-04 18:06 51.13231 22.43236 34975 ft 425 kts
2026-05-04 18:06 51.19134 22.44321 34968 ft 426 kts
2026-05-04 18:07 51.25015 22.45405 34963 ft 426 kts
2026-05-04 18:07 51.30847 22.46484 34962 ft 425 kts
2026-05-04 18:08 51.36725 22.47572 34957 ft 424 kts
2026-05-04 18:08 51.42608 22.48664 34955 ft 425 kts
2026-05-04 18:09 51.54351 22.50858 34949 ft 427 kts
2026-05-04 18:10 51.60255 22.51961 34951 ft 427 kts
2026-05-04 18:10 51.66138 22.53062 34950 ft 427 kts
2026-05-04 18:11 51.72045 22.54173 34953 ft 427 kts
2026-05-04 18:11 51.77940 22.55288 34949 ft 427 kts
2026-05-04 18:12 51.83813 22.56398 34949 ft 428 kts
2026-05-04 18:12 51.89728 22.57520 34945 ft 429 kts
2026-05-04 18:13 51.95684 22.58655 34946 ft 429 kts
2026-05-04 18:14 52.04564 22.60349 34935 ft 428 kts
2026-05-04 18:14 52.10465 22.61479 34916 ft 428 kts
2026-05-04 18:15 52.22298 22.63747 34925 ft 429 kts
2026-05-04 18:16 52.28222 22.64892 34918 ft 429 kts
2026-05-04 18:16 52.34126 22.66036 34919 ft 429 kts
2026-05-04 18:17 52.43003 22.67764 34915 ft 428 kts
2026-05-04 18:18 52.51856 22.69488 34914 ft 427 kts
2026-05-04 18:18 52.57776 22.70646 34913 ft 428 kts
2026-05-04 18:19 52.66635 22.72386 34913 ft 428 kts
2026-05-04 18:19 52.72529 22.73550 34912 ft 427 kts
2026-05-04 18:20 52.78429 22.74715 34910 ft 427 kts
2026-05-04 18:20 52.84331 22.75882 34907 ft 426 kts
2026-05-04 18:21 52.90219 22.77050 34902 ft 427 kts
2026-05-04 18:21 52.96140 22.78228 34904 ft 426 kts
2026-05-04 18:22 53.02035 22.79410 34906 ft 426 kts
2026-05-04 18:22 53.07927 22.80588 34900 ft 429 kts
2026-05-04 18:23 53.13829 22.81770 34909 ft 428 kts
2026-05-04 18:23 53.19766 22.82967 34902 ft 430 kts
2026-05-04 18:24 53.25700 22.84170 34915 ft 430 kts
2026-05-04 18:24 53.31643 22.85368 34916 ft 432 kts
2026-05-04 18:25 53.37615 22.86578 34908 ft 435 kts
2026-05-04 18:25 53.40643 22.87196 34689 ft 432 kts
2026-05-04 18:25 53.43581 22.87800 34407 ft 424 kts
2026-05-04 18:26 53.46495 22.88402 34137 ft 419 kts
2026-05-04 18:26 53.49383 22.88995 33865 ft 421 kts
2026-05-04 18:26 53.52305 22.89591 33588 ft 421 kts
2026-05-04 18:26 53.55210 22.90184 33310 ft 419 kts
2026-05-04 18:27 53.58072 22.90770 33030 ft 416 kts
2026-05-04 18:27 53.60910 22.91352 32751 ft 415 kts
2026-05-04 18:27 53.63801 22.91944 32474 ft 415 kts
2026-05-04 18:27 53.66662 22.92532 32201 ft 415 kts
2026-05-04 18:28 53.69490 22.93114 31926 ft 414 kts
2026-05-04 18:28 53.72320 22.93697 31646 ft 412 kts
2026-05-04 18:28 53.75171 22.94287 31363 ft 412 kts
2026-05-04 18:28 53.78004 22.94873 31082 ft 411 kts
2026-05-04 18:29 53.80827 22.95456 30803 ft 411 kts
2026-05-04 18:29 53.83666 22.96044 30530 ft 410 kts
2026-05-04 18:29 53.86479 22.96627 30244 ft 407 kts
2026-05-04 18:29 53.89263 22.97204 29971 ft 406 kts
2026-05-04 18:30 53.94830 22.98366 29418 ft 403 kts
2026-05-04 18:30 53.97581 22.98941 29115 ft 397 kts
2026-05-04 18:30 54.00303 22.99514 28687 ft 394 kts
2026-05-04 18:31 54.03002 23.00081 28221 ft 392 kts
2026-05-04 18:31 54.05715 23.00651 27727 ft 390 kts
2026-05-04 18:31 54.08384 23.01211 27243 ft 388 kts
2026-05-04 18:31 54.11052 23.01772 26758 ft 386 kts
2026-05-04 18:32 54.13713 23.02333 26280 ft 385 kts
2026-05-04 18:32 54.16354 23.02890 25795 ft 383 kts
2026-05-04 18:32 54.18981 23.03446 25321 ft 381 kts
2026-05-04 18:32 54.21565 23.04010 24847 ft 380 kts
2026-05-04 18:33 54.24168 23.04879 24358 ft 381 kts 12°
2026-05-04 18:33 54.25788 23.05866 24045 ft 384 kts 21°
2026-05-04 18:33 54.28026 23.08201 23573 ft 388 kts 36°
2026-05-04 18:33 54.29969 23.11389 23097 ft 389 kts 47°
2026-05-04 18:34 54.31604 23.15031 22613 ft 390 kts 55°
2026-05-04 18:34 54.32880 23.19120 22129 ft 390 kts 68°
2026-05-04 18:34 54.33731 23.23459 21658 ft 389 kts 73°
2026-05-04 18:34 54.34427 23.27914 21174 ft 387 kts 75°
2026-05-04 18:35 54.35067 23.32361 20694 ft 387 kts 76°
2026-05-04 18:35 54.35703 23.36853 20201 ft 386 kts 75°
2026-05-04 18:35 54.36332 23.41245 19735 ft 384 kts 75°
2026-05-04 18:35 54.36984 23.45694 19248 ft 383 kts 75°
2026-05-04 18:36 54.37642 23.50079 18768 ft 381 kts 75°
2026-05-04 18:36 54.38305 23.54444 18290 ft 379 kts 74°
2026-05-04 18:36 54.38965 23.58788 17812 ft 378 kts 75°
2026-05-04 18:36 54.39618 23.63106 17352 ft 376 kts 74°
2026-05-04 18:37 54.40260 23.67416 16879 ft 374 kts 75°
2026-05-04 18:37 54.40918 23.71715 16415 ft 372 kts 75°
2026-05-04 18:37 54.41568 23.75988 15959 ft 370 kts 75°
2026-05-04 18:37 54.42216 23.80248 15438 ft 364 kts 75°
2026-05-04 18:38 54.42831 23.84335 15027 ft 353 kts 75°
2026-05-04 18:38 54.43434 23.88387 14604 ft 349 kts 75°
2026-05-04 18:38 54.44038 23.92427 14132 ft 349 kts 75°
2026-05-04 18:38 54.44638 23.96451 13689 ft 348 kts 75°
2026-05-04 18:39 54.45233 24.00452 13251 ft 347 kts 75°
2026-05-04 18:39 54.45823 24.04423 12818 ft 346 kts 75°
2026-05-04 18:39 54.46410 24.08408 12381 ft 345 kts 75°
2026-05-04 18:39 54.47003 24.12423 11922 ft 344 kts 75°
2026-05-04 18:40 54.47584 24.16349 11491 ft 338 kts 75°
2026-05-04 18:40 54.48137 24.20226 11118 ft 331 kts 79°
2026-05-04 18:40 54.48327 24.24069 10888 ft 323 kts 92°
2026-05-04 18:40 54.48206 24.27926 10634 ft 324 kts 96°
2026-05-04 18:41 54.48011 24.31753 10379 ft 321 kts 96°
2026-05-04 18:41 54.47840 24.35552 10130 ft 321 kts 95°
2026-05-04 18:41 54.47708 24.39393 9880 ft 317 kts 94°
2026-05-04 18:41 54.47613 24.43103 9723 ft 306 kts 94°
2026-05-04 18:42 54.47533 24.46673 9539 ft 297 kts 93°
2026-05-04 18:42 54.47462 24.50207 9158 ft 297 kts 93°
2026-05-04 18:42 54.47387 24.53745 8795 ft 296 kts 93°
2026-05-04 18:42 54.47311 24.57242 8433 ft 296 kts 93°
2026-05-04 18:43 54.47228 24.60767 8066 ft 295 kts 93°
2026-05-04 18:43 54.47145 24.64286 7702 ft 295 kts 93°
2026-05-04 18:43 54.47062 24.67807 7341 ft 294 kts 94°
2026-05-04 18:43 54.46981 24.71297 6970 ft 293 kts 94°
2026-05-04 18:44 54.46892 24.74787 6620 ft 292 kts 94°
2026-05-04 18:44 54.46865 24.75912 6502 ft 292 kts 94°
2026-05-04 18:44 54.46723 24.81687 5893 ft 290 kts 94°
2026-05-04 18:44 54.46639 24.85132 5601 ft 286 kts 94°
2026-05-04 18:45 54.46554 24.88510 5290 ft 284 kts 94°
2026-05-04 18:45 54.46466 24.91906 4932 ft 281 kts 94°
2026-05-04 18:45 54.46379 24.95167 4623 ft 271 kts 94°
2026-05-04 18:45 54.46298 24.98380 4364 ft 266 kts 94°
2026-05-04 18:46 54.46214 25.01511 4102 ft 263 kts 94°
2026-05-04 18:46 54.46131 25.04628 3850 ft 260 kts 93°
2026-05-04 18:46 54.46050 25.07703 3608 ft 255 kts 94°
2026-05-04 18:46 54.45967 25.10712 3366 ft 251 kts 93°
2026-05-04 18:47 54.46008 25.13690 3124 ft 248 kts 81°
2026-05-04 18:47 54.46613 25.16345 2893 ft 236 kts 49°
2026-05-04 18:47 54.47864 25.17973 2695 ft 218 kts 20°
2026-05-04 18:47 54.49215 25.18854 2695 ft 199 kts 14°
2026-05-04 18:48 54.50451 25.19634 2706 ft 181 kts 15°
2026-05-04 18:48 54.51586 25.20432 2693 ft 169 kts 16°
2026-05-04 18:48 54.52652 25.21171 2710 ft 170 kts 15°
2026-05-04 18:48 54.53760 25.21924 2382 ft 168 kts 15°
2026-05-04 18:49 54.54808 25.22644 2159 ft 160 kts 14°
2026-05-04 18:49 54.55846 25.23357 1954 ft 161 kts 16°
2026-05-04 18:49 54.56867 25.24063 1747 ft 158 kts 15°
2026-05-04 18:49 54.57879 25.24753 1544 ft 157 kts 17°
2026-05-04 18:50 54.58891 25.25465 1332 ft 154 kts 18°
2026-05-04 18:50 54.59865 25.26156 1126 ft 152 kts 18°
2026-05-04 18:50 54.60845 25.26807 933 ft 149 kts 18°
2026-05-04 18:50 54.61789 25.27453 745 ft 147 kts 19°
2026-05-04 18:51 54.62743 25.28115 589 ft 147 kts 19°
2026-05-04 18:51 54.63490 25.28608 601 ft 76 kts 23°
2026-05-04 18:51 54.63762 25.28808 616 ft 17 kts 22°
2026-05-04 18:51 54.63844 25.28866 621 ft 0 kts 19°
2026-05-04 18:52 54.63856 25.28865 621 ft 1 kts 11°
2026-05-04 18:52 54.63857 25.28873 621 ft 1 kts 93°
2026-05-04 18:52 54.63834 25.28866 620 ft 9 kts 195°
2026-05-04 18:53 54.63782 25.28784 616 ft 3 kts 276°
2026-05-04 18:53 54.63808 25.28749 617 ft 4 kts 354°
2026-05-04 18:53 54.63834 25.28745 618 ft 4 kts 355°
2026-05-04 18:53 54.63879 25.28738 620 ft 7 kts 355°
2026-05-04 18:54 54.63924 25.28731 622 ft 7 kts 354°
2026-05-04 18:54 54.63977 25.28720 623 ft 0 kts 353°
2026-05-04 18:55 54.63980 25.28719 624 ft 1 kts 353°
2026-05-04 18:55 54.64049 25.28707 626 ft 8 kts 355°
2026-05-04 18:55 54.64120 25.28696 629 ft 11 kts 354°
2026-05-04 18:56 54.64186 25.28685 630 ft 8 kts 354°
2026-05-04 18:56 54.64246 25.28674 631 ft 10 kts 354°
2026-05-04 18:56 54.64319 25.28662 633 ft 9 kts 354°
2026-05-04 18:56 54.64384 25.28648 633 ft 9 kts 348°
2026-05-04 18:57 54.64409 25.28578 631 ft 7 kts 268°
2026-05-04 18:57 54.64406 25.28479 629 ft 8 kts 268°
2026-05-04 18:57 54.64404 25.28401 628 ft 3 kts 268°
2026-05-04 18:57 54.64408 25.28350 627 ft 5 kts 290°
2026-05-04 18:58 54.64419 25.28311 626 ft 1 kts 295°
2026-05-04 18:58 54.64429 25.28291 626 ft 2 kts 336°
2026-05-04 18:58 54.64447 25.28267 625 ft 2 kts 292°
2026-05-04 18:58 54.64451 25.28220 624 ft 3 kts 271°
2026-05-04 18:59 54.64451 25.28195 624 ft 2 kts 270°
2026-05-04 18:59 54.64451 25.28178 624 ft 1 kts 269°
2026-05-04 18:59 54.64451 25.28174 624 ft 0 kts 269°